| time (UTC) | temp C | wind direction | speed KPH | gust KPH | rain 1hr cm | rain 24hr cm | rain mn cm | humidity % | barometer mb |
| 20260504003104 | 12 | 184 | 0.0 | 0.0 | 0.00 | 0.00 | 0.00 | 82 | 1018.9 |
| 20260504002603 | 12 | 184 | 0.0 | 0.0 | 0.00 | 0.00 | 0.00 | 82 | 1018.9 |
| 20260504002102 | 12 | 184 | 0.0 | 0.0 | 0.00 | 0.00 | 0.00 | 82 | 1019.0 |
| 20260504001601 | 12 | 184 | 0.0 | 0.0 | 0.00 | 0.00 | 0.00 | 82 | 1019.0 |
| 20260504001051 | 12 | 184 | 0.0 | 3.2 | 0.00 | 0.00 | 0.00 | 82 | 1019.0 |
| 20260504000547 | 12 | 184 | 0.0 | 3.2 | 0.00 | 0.00 | 0.00 | 82 | 1019.0 |
| 20260504000042 | 12 | 184 | 1.6 | 3.2 | 0.00 | 0.00 | 0.00 | 81 | 1018.9 |
| 20260503235543 | 12 | 184 | 0.0 | 3.2 | 0.00 | 0.00 | 0.00 | 82 | 1019.0 |
| 20260503235041 | 12 | 184 | 0.0 | 1.6 | 0.00 | 0.00 | 0.00 | 82 | 1019.1 |
| 20260503234543 | 12 | 184 | 0.0 | 1.6 | 0.00 | 0.00 | 0.00 | 82 | 1019.2 |
| 20260503234038 | 12 | 184 | 1.6 | 3.2 | 0.00 | 0.00 | 0.00 | 82 | 1019.3 |
| 20260503233539 | 12 | 184 | 1.6 | 3.2 | 0.00 | 0.00 | 0.00 | 82 | 1019.3 |
| 20260503233029 | 12 | 184 | 1.6 | 3.2 | 0.00 | 0.00 | 0.00 | 82 | 1019.3 |
| 20260503232520 | 12 | 184 | 1.6 | 3.2 | 0.00 | 0.00 | 0.00 | 81 | 1019.4 |
| 20260503232019 | 12 | 184 | 0.0 | 3.2 | 0.00 | 0.00 | 0.00 | 81 | 1019.4 |
| 20260503231518 | 12 | 184 | 0.0 | 3.2 | 0.00 | 0.00 | 0.00 | 81 | 1019.4 |
| 20260503231018 | 12 | 184 | 1.6 | 3.2 | 0.00 | 0.00 | 0.00 | 80 | 1019.4 |
| 20260503230516 | 12 | 184 | 1.6 | 4.8 | 0.00 | 0.00 | 0.00 | 80 | 1019.5 |
| 20260503230017 | 12 | 184 | 1.6 | 4.8 | 0.00 | 0.00 | 0.00 | 80 | 1019.4 |
| 20260503225515 | 13 | 265 | 0.0 | 1.6 | 0.00 | 0.00 | 0.00 | 79 | 1019.5 |
| 20260503225005 | 13 | 265 | 0.0 | 1.6 | 0.00 | 0.00 | 0.00 | 79 | 1019.5 |
| 20260503224455 | 13 | 265 | 0.0 | 1.6 | 0.00 | 0.00 | 0.00 | 79 | 1019.5 |
| 20260503223952 | 13 | 265 | 0.0 | 1.6 | 0.00 | 0.00 | 0.00 | 78 | 1019.5 |
| 20260503223439 | 13 | 265 | 0.0 | 1.6 | 0.00 | 0.00 | 0.00 | 76 | 1019.5 |
| 20260503222934 | 13 | 265 | 0.0 | 0.0 | 0.00 | 0.00 | 0.00 | 75 | 1019.4 |
| 20260503222428 | 13 | 265 | 0.0 | 1.6 | 0.00 | 0.00 | 0.00 | 75 | 1019.4 |
| 20260503221925 | 13 | 265 | 1.6 | 3.2 | 0.00 | 0.00 | 0.00 | 75 | 1019.4 |
| 20260503221426 | 13 | 265 | 1.6 | 3.2 | 0.00 | 0.00 | 0.00 | 74 | 1019.4 |
| 20260503220921 | 13 | 265 | 1.6 | 3.2 | 0.00 | 0.00 | 0.00 | 74 | 1019.3 |
| 20260503220414 | 13 | 265 | 0.0 | 1.6 | 0.00 | 0.00 | 0.00 | 73 | 1019.4 |
| 20260503215912 | 13 | 265 | 1.6 | 3.2 | 0.00 | 0.00 | 0.00 | 72 | 1019.3 |
| 20260503215412 | 14 | 265 | 1.6 | 3.2 | 0.00 | 0.00 | 0.00 | 72 | 1019.3 |
| 20260503214911 | 14 | 257 | 1.6 | 3.2 | 0.00 | 0.00 | 0.00 | 71 | 1019.4 |
| 20260503214400 | 14 | 246 | 1.6 | 3.2 | 0.00 | 0.00 | 0.00 | 71 | 1019.3 |
| 20260503213902 | 14 | 240 | 1.6 | 3.2 | 0.00 | 0.00 | 0.00 | 71 | 1019.4 |
| 20260503213428 | 14 | 238 | 1.6 | 4.8 | 0.00 | 0.00 | 0.00 | 70 | 1019.4 |
| 20260503212351 | 15 | 236 | 1.6 | 8.0 | 0.00 | 0.00 | 0.00 | 70 | 1019.3 |
| 20260503211851 | 15 | 261 | 0.0 | 3.2 | 0.00 | 0.00 | 0.00 | 70 | 1019.4 |
| 20260503211350 | 15 | 261 | 0.0 | 3.2 | 0.00 | 0.00 | 0.00 | 70 | 1019.2 |
| 20260503210847 | 15 | 261 | 1.6 | 11.3 | 0.00 | 0.00 | 0.00 | 70 | 1019.1 |
| 20260503210339 | 15 | 254 | 3.2 | 11.3 | 0.00 | 0.00 | 0.00 | 70 | 1019.1 |
| 20260503205838 | 15 | 215 | 1.6 | 6.4 | 0.00 | 0.00 | 0.00 | 70 | 1019.1 |
| 20260503205339 | 15 | 223 | 1.6 | 4.8 | 0.00 | 0.00 | 0.00 | 70 | 1019.0 |
| 20260503204837 | 15 | 222 | 1.6 | 4.8 | 0.00 | 0.00 | 0.00 | 70 | 1019.0 |
| 20260503204342 | 15 | 214 | 1.6 | 4.8 | 0.00 | 0.00 | 0.00 | 69 | 1019.0 |
| 20260503203833 | 15 | 227 | 3.2 | 6.4 | 0.00 | 0.00 | 0.00 | 68 | 1018.9 |
| 20260503203401 | 15 | 266 | 3.2 | 6.4 | 0.00 | 0.00 | 0.00 | 68 | 1018.9 |
| 20260503202333 | 16 | 286 | 1.6 | 4.8 | 0.00 | 0.00 | 0.00 | 66 | 1018.9 |
| 20260503201908 | 16 | 244 | 1.6 | 4.8 | 0.00 | 0.00 | 0.00 | 66 | 1018.9 |
| 20260503200815 | 16 | 214 | 1.6 | 4.8 | 0.00 | 0.00 | 0.00 | 66 | 1018.7 |
| 20260503200316 | 16 | 211 | 3.2 | 6.4 | 0.00 | 0.00 | 0.00 | 67 | 1018.7 |
| 20260503195807 | 16 | 213 | 1.6 | 6.4 | 0.00 | 0.00 | 0.00 | 67 | 1018.6 |
| 20260503195304 | 16 | 219 | 0.0 | 3.2 | 0.00 | 0.00 | 0.00 | 67 | 1018.5 |
| 20260503194801 | 16 | 215 | 0.0 | 3.2 | 0.00 | 0.00 | 0.00 | 67 | 1018.5 |
| 20260503194349 | 16 | 246 | 1.6 | 6.4 | 0.00 | 0.00 | 0.00 | 67 | 1018.4 |
| 20260503193247 | 16 | 290 | 3.2 | 11.3 | 0.00 | 0.00 | 0.00 | 66 | 1018.3 |
| 20260503192750 | 16 | 296 | 3.2 | 11.3 | 0.00 | 0.00 | 0.00 | 65 | 1018.3 |
| 20260503192238 | 16 | 214 | 3.2 | 11.3 | 0.00 | 0.00 | 0.00 | 65 | 1018.2 |
| 20260503191841 | 17 | 195 | 3.2 | 9.7 | 0.00 | 0.00 | 0.00 | 65 | 1018.2 |
| 20260503190740 | 17 | 209 | 3.2 | 9.7 | 0.00 | 0.00 | 0.00 | 64 | 1018.1 |
| 20260503190239 | 17 | 194 | 3.2 | 11.3 | 0.00 | 0.00 | 0.00 | 63 | 1018.0 |
| 20260503185730 | 17 | 223 | 3.2 | 11.3 | 0.00 | 0.00 | 0.00 | 62 | 1017.9 |
| 20260503185223 | 17 | 292 | 3.2 | 11.3 | 0.00 | 0.00 | 0.00 | 62 | 1017.8 |
| 20260503184810 | 17 | 284 | 4.8 | 12.9 | 0.00 | 0.00 | 0.00 | 62 | 1017.8 |
| 20260503183655 | 17 | 238 | 4.8 | 11.3 | 0.00 | 0.00 | 0.00 | 61 | 1017.7 |
| 20260503183147 | 18 | 252 | 4.8 | 14.5 | 0.00 | 0.00 | 0.00 | 61 | 1017.7 |
| 20260503182649 | 18 | 198 | 6.4 | 16.1 | 0.00 | 0.00 | 0.00 | 60 | 1017.6 |
| 20260503182144 | 18 | 202 | 4.8 | 16.1 | 0.00 | 0.00 | 0.00 | 60 | 1017.6 |
| 20260503181726 | 18 | 227 | 3.2 | 9.7 | 0.00 | 0.00 | 0.00 | 59 | 1017.5 |
| 20260503180634 | 18 | 295 | 1.6 | 8.0 | 0.00 | 0.00 | 0.00 | 58 | 1017.3 |
| 20260503180134 | 18 | 257 | 3.2 | 8.0 | 0.00 | 0.00 | 0.00 | 58 | 1017.3 |
| 20260503175634 | 18 | 271 | 3.2 | 8.0 | 0.00 | 0.00 | 0.00 | 57 | 1017.2 |
| 20260503175133 | 19 | 302 | 3.2 | 9.7 | 0.00 | 0.00 | 0.00 | 57 | 1017.2 |
| 20260503174630 | 19 | 300 | 3.2 | 9.7 | 0.00 | 0.00 | 0.00 | 56 | 1017.1 |
| 20260503174122 | 20 | 292 | 4.8 | 12.9 | 0.00 | 0.00 | 0.10 | 55 | 1017.1 |
| 20260503173615 | 20 | 289 | 6.4 | 12.9 | 0.00 | 0.00 | 0.10 | 55 | 1017.1 |
| 20260503173105 | 20 | 275 | 4.8 | 12.9 | 0.00 | 0.00 | 0.10 | 54 | 1017.1 |
| 20260503172602 | 20 | 294 | 4.8 | 9.7 | 0.00 | 0.00 | 0.10 | 54 | 1017.1 |
| 20260503172047 | 21 | 309 | 4.8 | 11.3 | 0.00 | 0.00 | 0.10 | 53 | 1017.0 |
| 20260503171542 | 21 | 306 | 4.8 | 11.3 | 0.00 | 0.00 | 0.10 | 52 | 1016.9 |
| 20260503171044 | 22 | 295 | 3.2 | 9.7 | 0.00 | 0.00 | 0.10 | 50 | 1016.9 |
| 20260503170540 | 22 | 287 | 3.2 | 8.0 | 0.00 | 0.00 | 0.10 | 49 | 1016.9 |
| 20260503150922 | 23 | 300 | 8.0 | 20.9 | 0.00 | 0.00 | 0.10 | 45 | 1017.7 |
| 20260503150453 | 23 | 283 | 9.7 | 20.9 | 0.00 | 0.00 | 0.10 | 44 | 1017.7 |
| 20260503140141 | 24 | 221 | 8.0 | 22.5 | 0.00 | 0.00 | 0.00 | 42 | 1018.2 |
| 20260503131104 | 24 | 225 | 8.0 | 17.7 | 0.00 | 0.00 | 0.00 | 40 | 1018.3 |
| 20260503130603 | 24 | 286 | 6.4 | 17.7 | 0.00 | 0.00 | 0.00 | 43 | 1018.4 |
| 20260503130128 | 24 | 221 | 6.4 | 14.5 | 0.00 | 0.00 | 0.00 | 41 | 1018.3 |
| 20260503110338 | 23 | 226 | 8.0 | 19.3 | 0.00 | 0.00 | 0.00 | 45 | 1019.1 |
| 20260503100234 | 22 | 317 | 4.8 | 12.9 | 0.00 | 0.00 | 0.00 | 43 | 1019.8 |
| 20260503081544 | 18 | 306 | 3.2 | 6.4 | 0.00 | 0.00 | 0.00 | 58 | 1020.7 |
| 20260503081042 | 18 | 302 | 3.2 | 8.0 | 0.00 | 0.00 | 0.00 | 57 | 1020.7 |
| 20260503080541 | 18 | 308 | 3.2 | 8.0 | 0.00 | 0.00 | 0.00 | 58 | 1020.8 |
| 20260503072458 | 16 | 205 | 0.0 | 0.0 | 0.00 | 0.00 | 0.00 | 60 | 1020.9 |
| 20260503071946 | 15 | 205 | 0.0 | 3.2 | 0.00 | 0.00 | 0.00 | 63 | 1021.0 |
| 20260503071438 | 15 | 205 | 1.6 | 4.8 | 0.00 | 0.00 | 0.00 | 62 | 1021.0 |
| 20260503070931 | 15 | 204 | 0.0 | 4.8 | 0.00 | 0.00 | 0.00 | 63 | 1021.2 |
| 20260503070430 | 15 | 184 | 0.0 | 3.2 | 0.00 | 0.00 | 0.00 | 65 | 1021.2 |
| 20260503054357 | 10 | 173 | 1.6 | 3.2 | 0.00 | 0.00 | 0.00 | 76 | 1021.0 |
| 20260503053859 | 10 | 169 | 1.6 | 3.2 | 0.00 | 0.00 | 0.00 | 77 | 1021.0 |
| 20260503053358 | 10 | 169 | 1.6 | 3.2 | 0.00 | 0.00 | 0.00 | 76 | 1020.9 |
| 20260503052915 | 10 | 169 | 1.6 | 3.2 | 0.00 | 0.00 | 0.00 | 77 | 1020.9 |
| 20260503051931 | 9 | 169 | 1.6 | 3.2 | 0.00 | 0.00 | 0.00 | 78 | 1020.9 |
| 20260503050849 | 9 | 169 | 1.6 | 3.2 | 0.00 | 0.00 | 0.00 | 79 | 1020.9 |
| 20260503050346 | 8 | 169 | 1.6 | 3.2 | 0.00 | 0.00 | 0.00 | 80 | 1020.9 |
| 20260503045845 | 8 | 170 | 0.0 | 1.6 | 0.00 | 0.00 | 0.00 | 80 | 1020.8 |
| 20260503045337 | 8 | 170 | 0.0 | 1.6 | 0.00 | 0.00 | 0.00 | 81 | 1020.9 |
| 20260503044836 | 8 | 170 | 0.0 | 1.6 | 0.00 | 0.00 | 0.00 | 82 | 1020.8 |
| 20260503044335 | 7 | 170 | 1.6 | 3.2 | 0.00 | 0.00 | 0.00 | 82 | 1020.9 |
| 20260503043833 | 7 | 170 | 3.2 | 4.8 | 0.00 | 0.00 | 0.00 | 82 | 1020.9 |
| 20260503043334 | 7 | 170 | 3.2 | 4.8 | 0.00 | 0.00 | 0.00 | 82 | 1020.9 |
| 20260503042832 | 7 | 173 | 1.6 | 3.2 | 0.00 | 0.00 | 0.00 | 82 | 1020.9 |
| 20260503042332 | 7 | 173 | 0.0 | 3.2 | 0.00 | 0.00 | 0.00 | 81 | 1020.9 |
| 20260503041831 | 7 | 173 | 0.0 | 1.6 | 0.00 | 0.00 | 0.00 | 81 | 1020.9 |
| 20260503041332 | 7 | 173 | 0.0 | 1.6 | 0.00 | 0.00 | 0.00 | 81 | 1020.9 |
| 20260503040827 | 7 | 173 | 0.0 | 1.6 | 0.00 | 0.00 | 0.00 | 81 | 1020.9 |
| 20260503040347 | 8 | 173 | 0.0 | 1.6 | 0.00 | 0.00 | 0.00 | 80 | 1020.8 |
| 20260503035310 | 8 | 173 | 0.0 | 1.6 | 0.00 | 0.00 | 0.00 | 80 | 1020.6 |
| 20260503034757 | 8 | 173 | 0.0 | 3.2 | 0.00 | 0.00 | 0.00 | 79 | 1020.7 |
| 20260503034251 | 8 | 173 | 0.0 | 3.2 | 0.00 | 0.00 | 0.00 | 79 | 1020.6 |
| 20260503033737 | 8 | 173 | 0.0 | 0.0 | 0.00 | 0.00 | 0.00 | 79 | 1020.5 |
| 20260503033238 | 8 | 173 | 0.0 | 1.6 | 0.00 | 0.00 | 0.00 | 79 | 1020.5 |
| 20260503032738 | 8 | 173 | 0.0 | 1.6 | 0.00 | 0.00 | 0.00 | 78 | 1020.5 |
| 20260503032235 | 8 | 173 | 0.0 | 1.6 | 0.00 | 0.00 | 0.00 | 77 | 1020.4 |
| 20260503031737 | 8 | 173 | 0.0 | 1.6 | 0.00 | 0.00 | 0.00 | 77 | 1020.4 |
| 20260503031236 | 8 | 173 | 1.6 | 1.6 | 0.00 | 0.00 | 0.00 | 77 | 1020.4 |
| 20260503030737 | 8 | 173 | 1.6 | 1.6 | 0.00 | 0.00 | 0.00 | 77 | 1020.3 |
| 20260503030254 | 8 | 173 | 1.6 | 1.6 | 0.00 | 0.00 | 0.00 | 77 | 1020.3 |
| 20260503025213 | 8 | 173 | 0.0 | 1.6 | 0.00 | 0.00 | 0.00 | 76 | 1020.4 |
| 20260503024712 | 9 | 173 | 0.0 | 1.6 | 0.00 | 0.00 | 0.00 | 75 | 1020.4 |
| 20260503024214 | 9 | 173 | 0.0 | 1.6 | 0.00 | 0.00 | 0.00 | 74 | 1020.4 |
| 20260503023705 | 9 | 173 | 0.0 | 1.6 | 0.00 | 0.00 | 0.00 | 74 | 1020.4 |
| 20260503023218 | 9 | 173 | 0.0 | 1.6 | 0.00 | 0.00 | 0.00 | 74 | 1020.5 |
| 20260503022145 | 9 | 173 | 0.0 | 1.6 | 0.00 | 0.00 | 0.00 | 73 | 1020.5 |
| 20260503021644 | 10 | 173 | 1.6 | 1.6 | 0.00 | 0.00 | 0.00 | 73 | 1020.5 |
| 20260503021142 | 10 | 173 | 1.6 | 1.6 | 0.00 | 0.00 | 0.00 | 72 | 1020.6 |
| 20260503020644 | 10 | 173 | 1.6 | 1.6 | 0.00 | 0.00 | 0.00 | 72 | 1020.6 |
| 20260503020147 | 10 | 173 | 1.6 | 3.2 | 0.00 | 0.00 | 0.00 | 72 | 1020.7 |
| 20260503015640 | 10 | 173 | 1.6 | 3.2 | 0.00 | 0.00 | 0.00 | 72 | 1020.6 |
| 20260503015141 | 10 | 173 | 0.0 | 1.6 | 0.00 | 0.00 | 0.00 | 72 | 1020.6 |
| 20260503014638 | 10 | 173 | 0.0 | 1.6 | 0.00 | 0.00 | 0.00 | 72 | 1020.6 |
| 20260503014138 | 10 | 173 | 0.0 | 1.6 | 0.00 | 0.00 | 0.00 | 72 | 1020.7 |
| 20260503013638 | 10 | 173 | 0.0 | 1.6 | 0.00 | 0.00 | 0.00 | 71 | 1020.7 |
| 20260503013137 | 10 | 173 | 0.0 | 1.6 | 0.00 | 0.00 | 0.00 | 71 | 1020.8 |
| 20260503012638 | 10 | 173 | 0.0 | 1.6 | 0.00 | 0.00 | 0.00 | 71 | 1020.8 |
| 20260503012137 | 10 | 173 | 0.0 | 0.0 | 0.00 | 0.00 | 0.00 | 70 | 1020.8 |
| 20260503011636 | 10 | 173 | 0.0 | 0.0 | 0.00 | 0.00 | 0.00 | 70 | 1020.8 |
| 20260503011135 | 10 | 173 | 0.0 | 1.6 | 0.00 | 0.00 | 0.00 | 70 | 1020.7 |
| 20260503010636 | 10 | 173 | 0.0 | 1.6 | 0.00 | 0.00 | 0.00 | 70 | 1020.8 |
| 20260503010134 | 10 | 173 | 0.0 | 1.6 | 0.00 | 0.00 | 0.00 | 70 | 1020.9 |
| 20260503005632 | 10 | 173 | 0.0 | 1.6 | 0.00 | 0.00 | 0.00 | 70 | 1020.8 |
| 20260503005132 | 10 | 173 | 0.0 | 1.6 | 0.00 | 0.00 | 0.00 | 69 | 1020.9 |
| 20260503004633 | 10 | 173 | 1.6 | 3.2 | 0.00 | 0.00 | 0.00 | 69 | 1020.9 |
| 20260503004136 | 10 | 173 | 0.0 | 3.2 | 0.00 | 0.00 | 0.00 | 68 | 1021.0 |
| 20260503003630 | 10 | 173 | 0.0 | 1.6 | 0.00 | 0.00 | 0.00 | 68 | 1021.0 |